EW5828 Edisto Island SC US current weather conditions

sailwx.info

Wind from 051

Air temperature 14.4° C
Dewpoint 8.4° C

Last reported at 2019-Nov-17 21:46 UTC.
Time now 2019-Nov-17 22:40 UTC

Location: N 32°34' W 080°20'.
View on Google Maps.

See reports from other nearby stations

  
Tides and Currents Weather Stations Pressure Air Temp Water Temp Dewpoint Dewpoint Depression Visibility Wind Speed Wind Dir Waves Ship Positions
date/time (UTC)wind fromknots sea level pressurealtimeterstation pressurevisibilityair tempwater tempwave heightnotes
2019-Nov-17 21:46 051 14.4
2019-Nov-17 21:31 031 14.4
2019-Nov-17 21:16 031 1 gusting 7 15.0
2019-Nov-17 21:00 355 15.0
2019-Nov-17 20:45 005 14.4
2019-Nov-17 20:17 039 15.0
2019-Nov-17 20:01 056 0 gusting 9 15.0
2019-Nov-17 19:46 088 14.4
2019-Nov-17 19:31 074 14.4
2019-Nov-17 19:15 042 14.4
2019-Nov-17 19:00 088 13.9
2019-Nov-17 18:48 092 13.9
2019-Nov-17 17:01 316 1 gusting 11 11.7
2019-Nov-17 16:45 034 11.1
2019-Nov-17 16:30 012 5 gusting 13 11.1
2019-Nov-17 16:01 045 10.6
2019-Nov-17 15:46 030 4 gusting 15 10.0
2019-Nov-17 15:31 047 4 gusting 12 10.0
2019-Nov-17 15:15 084 3 gusting 13 9.4
2019-Nov-17 15:01 329 4 gusting 12 9.4
2019-Nov-17 13:45 042 3 gusting 11 7.8
2019-Nov-17 10:31 054 6 gusting 14 7.8
2019-Nov-17 09:46 087 6 gusting 14 7.8
2019-Nov-17 09:31 049 4 gusting 16 7.8
2019-Nov-17 09:16 015 6 gusting 14 7.8
2019-Nov-17 08:46 078 6 gusting 13 7.2
2019-Nov-17 07:45 055 1 gusting 14 7.8
2019-Nov-17 07:30 093 5 gusting 13 7.8
2019-Nov-17 07:16 065 6 gusting 14 7.8
2019-Nov-17 07:00 086 3 gusting 13 7.8
2019-Nov-17 06:45 097 1 gusting 14 7.8
2019-Nov-17 06:31 036 5 gusting 16 7.8
2019-Nov-17 05:15 034 0 gusting 11 7.8
2019-Nov-17 04:46 360 1 gusting 9 8.3
2019-Nov-17 03:17 060 5 gusting 13 8.3
2019-Nov-17 03:01 030 6 gusting 17 8.3
2019-Nov-17 02:46 111 5 gusting 12 8.3
2019-Nov-17 02:30 080 4 gusting 11 8.3
2019-Nov-17 02:15 041 4 gusting 12 7.8
2019-Nov-17 02:00 055 5 gusting 14 7.8
2019-Nov-17 01:31 067 1 gusting 11 7.8
2019-Nov-16 18:46 043 7 gusting 19 8.3
2019-Nov-16 18:30 074 6 gusting 12 8.3
2019-Nov-16 18:15 339 6 gusting 16 8.3
2019-Nov-16 18:01 085 4 gusting 13 8.3
2019-Nov-16 17:46 031 2 gusting 15 8.3
2019-Nov-16 17:30 050 5 gusting 12 8.3
2019-Nov-16 17:15 055 5 gusting 14 8.3
2019-Nov-16 17:00 030 5 gusting 12 8.3
2019-Nov-16 16:45 097 3 gusting 13 8.3
2019-Nov-16 16:33 057 6 gusting 12 8.3
2019-Nov-16 16:16 360 5 gusting 12 8.3
2019-Nov-16 16:01 013 4 gusting 11 8.3
2019-Nov-16 15:46 026 5 gusting 15 8.3
2019-Nov-16 15:30 057 1 gusting 14 8.9
2019-Nov-16 15:16 052 5 gusting 9 8.9
2019-Nov-16 15:02 017 2 gusting 14 8.9
2019-Nov-16 14:46 088 6 gusting 11 8.9
2019-Nov-16 14:31 062 9.4
2019-Nov-16 14:15 348 2 gusting 10 9.4
2019-Nov-16 13:46 076 3 gusting 13 9.4
2019-Nov-16 13:31 053 4 gusting 12 9.4
2019-Nov-16 13:17 106 4 gusting 9 9.4
2019-Nov-16 13:00 068 6 gusting 13 9.4
2019-Nov-16 12:45 106 4 gusting 14 9.4
2019-Nov-16 12:30 046 7 gusting 11 10.0
2019-Nov-16 12:15 049 4 gusting 12 10.0
2019-Nov-16 11:47 023 3 gusting 13 10.0
2019-Nov-16 11:31 036 5 gusting 14 10.0
2019-Nov-16 11:16 051 6 gusting 16 10.0
2019-Nov-16 11:00 098 3 gusting 13 10.0
2019-Nov-16 10:45 069 5 gusting 13 10.0
2019-Nov-16 10:30 024 4 gusting 12 10.0
2019-Nov-16 10:15 055 2 gusting 11 10.0
2019-Nov-16 10:02 071 6 gusting 14 10.0
2019-Nov-16 09:46 056 5 gusting 11 10.0
2019-Nov-16 09:31 086 3 gusting 9 10.0
2019-Nov-16 09:15 061 4 gusting 12 10.0
2019-Nov-16 09:00 078 4 gusting 10 10.0
2019-Nov-16 08:45 054 4 gusting 10 10.0
2019-Nov-16 08:30 005 2 gusting 9 10.0
2019-Nov-16 08:02 051 6 gusting 14 10.0
2019-Nov-16 07:46 066 6 gusting 13 10.6
2019-Nov-16 07:31 069 4 gusting 12 10.6
2019-Nov-16 07:16 038 7 gusting 15 10.6
2019-Nov-16 07:00 028 5 gusting 15 10.6
2019-Nov-16 06:45 034 6 gusting 13 10.6
2019-Nov-16 06:16 059 5 gusting 9 11.1
2019-Nov-16 06:01 034 1 gusting 9 11.1
2019-Nov-16 05:46 052 6 gusting 13 11.1
2019-Nov-16 05:30 073 6 gusting 13 11.7
2019-Nov-16 05:15 041 4 gusting 10 11.7
2019-Nov-16 05:00 111 2 gusting 8 12.2
2019-Nov-16 04:45 062 4 gusting 11 12.2
2019-Nov-16 04:33 021 4 gusting 11 11.7
2019-Nov-16 04:16 105 1 gusting 7 11.7
2019-Nov-16 04:01 066 3 gusting 9 11.7
2019-Nov-16 03:46 066 0 gusting 7 11.7
2019-Nov-16 03:30 054 3 gusting 8 11.7
2019-Nov-16 03:15 042 3 gusting 8 11.7
2019-Nov-16 03:00 104 2 gusting 8 11.7
2019-Nov-16 02:31 074 2 gusting 8 11.7
2019-Nov-16 02:17 052 11.7
2019-Nov-16 02:01 067 4 gusting 11 11.7
2019-Nov-16 01:46 054 3 gusting 11 11.7
2019-Nov-16 01:30 059 6 gusting 11 11.7
2019-Nov-16 01:15 037 4 gusting 8 11.7
2019-Nov-16 01:00 036 3 gusting 10 11.7
2019-Nov-16 00:46 005 3 gusting 10 11.7
2019-Nov-16 00:31 018 2 gusting 9 11.1
2019-Nov-16 00:16 032 2 gusting 8 11.1
2019-Nov-16 00:01 036 6 gusting 12 11.1
2019-Nov-15 23:45 061 3 gusting 7 11.1
2019-Nov-15 23:30 050 4 gusting 10 11.1
2019-Nov-15 23:15 018 2 gusting 10 11.7
2019-Nov-15 22:46 107 3 gusting 10 11.7
2019-Nov-15 22:31 071 2 gusting 8 11.7
2019-Nov-15 22:16 042 4 gusting 11 11.7
2019-Nov-15 22:01 026 12.2